Simultaneous Nadir Overpasses (SNOs) Predictions

Prediction of SNOs between GOES-16 and AQUA Satellite Orbit:

Table of predicted SNOs for the next 14.0 days since TLE Epoch: 2/1/2019
Index Date Time (GOES-16) GOES-16 Lat,Lon AQUA Lat,Lon Distance(km) Time Diff (sec)
1 02/02/2019 06:44:30 0.01, -75.18 0.35, -76.82 185.60 80
2 02/04/2019 06:29:40 0.01, -75.17 -0.27, -73.86 149.78 80
3 02/04/2019 18:51:04 -0.01, -75.18 -0.83, -79.05 440.19 80
4 02/06/2019 06:17:29 0.01, -75.17 -0.88, -70.90 485.81 80
5 02/06/2019 18:38:53 -0.01, -75.18 -0.21, -76.09 103.97 80
6 02/08/2019 18:26:42 -0.00, -75.19 0.41, -73.13 232.94 80
7 02/09/2019 06:50:38 0.00, -75.18 0.64, -78.30 353.47 80
8 02/11/2019 06:38:27 0.00, -75.20 0.01, -75.34 16.13 80
9 02/13/2019 06:23:36 0.00, -75.21 -0.61, -72.38 321.81 80
10 02/13/2019 18:45:00 -0.00, -75.22 -0.53, -77.57 267.66 80
11 02/15/2019 18:35:29 -0.01, -75.23 0.10, -74.61 70.38 80




NCC Satellite Simultaneous Nadir Overpasses (SNOs) Prediction Service
